Time,TemperatureF,DewpointF,PressureIn,WindDirection,WindDirectionDegrees,WindSpeedMPH,WindSpeedGustMPH,Humidity,HourlyPrecipIn,Conditions,Clouds,dailyrainin,SoftwareType,DateUTC
2015-04-27 00:02:00,40.8,32.1,30.10,North,5,4.0,6.0,71,0.00,,---,0.00,VWS V15.00,2015-04-27 05:02:00,
2015-04-27 00:07:00,40.7,32.0,30.10,North,5,3.0,7.0,71,0.00,,---,0.00,VWS V15.00,2015-04-27 05:07:00,
2015-04-27 00:12:00,40.7,32.0,30.10,North,360,6.0,8.0,71,0.00,,---,0.00,VWS V15.00,2015-04-27 05:12:00,
2015-04-27 00:17:00,41.0,32.3,30.11,NNW,347,6.0,8.0,71,0.00,,---,0.00,VWS V15.00,2015-04-27 05:17:00,
2015-04-27 00:22:00,40.8,32.1,30.11,NNW,340,6.0,7.0,71,0.00,,---,0.00,VWS V15.00,2015-04-27 05:22:00,
2015-04-27 00:27:00,40.6,32.0,30.10,NNW,346,5.0,7.0,71,0.00,,---,0.00,VWS V15.00,2015-04-27 05:27:00,
2015-04-27 00:32:00,40.4,31.8,30.10,North,355,4.0,7.0,71,0.00,,---,0.00,VWS V15.00,2015-04-27 05:32:00,
2015-04-27 00:37:00,40.3,32.0,30.10,North,9,6.0,7.0,72,0.00,,---,0.00,VWS V15.00,2015-04-27 05:37:00,
2015-04-27 00:42:00,40.1,31.8,30.10,North,360,5.0,7.0,72,0.00,,---,0.00,VWS V15.00,2015-04-27 05:42:00,
2015-04-27 00:47:00,39.9,32.0,30.10,North,355,4.0,6.0,73,0.00,,---,0.00,VWS V15.00,2015-04-27 05:47:00,
2015-04-27 00:52:00,39.7,31.8,30.10,North,355,5.0,8.0,73,0.00,,---,0.00,VWS V15.00,2015-04-27 05:52:00,
2015-04-27 00:57:00,39.7,32.1,30.11,North,350,5.0,7.0,74,0.00,,---,0.00,VWS V15.00,2015-04-27 05:57:00,
2015-04-27 01:02:00,39.7,32.1,30.11,North,355,3.0,6.0,74,0.00,,---,0.00,VWS V15.00,2015-04-27 06:02:00,
2015-04-27 01:07:00,39.7,32.1,30.11,North,355,4.0,6.0,74,0.00,,---,0.00,VWS V15.00,2015-04-27 06:07:00,
2015-04-27 01:12:00,39.5,31.9,30.11,NNW,337,4.0,7.0,74,0.00,,---,0.00,VWS V15.00,2015-04-27 06:12:00,
2015-04-27 01:17:00,39.3,32.0,30.11,NNW,328,5.0,7.0,75,0.00,,---,0.00,VWS V15.00,2015-04-27 06:17:00,
2015-04-27 01:22:00,39.2,32.0,30.11,NW,324,5.0,6.0,75,0.00,,---,0.00,VWS V15.00,2015-04-27 06:22:00,
2015-04-27 01:27:00,39.1,31.9,30.11,NNW,338,5.0,7.0,75,0.00,,---,0.00,VWS V15.00,2015-04-27 06:27:00,
2015-04-27 01:32:00,39.2,32.0,30.11,NNW,337,5.0,8.0,75,0.00,,---,0.00,VWS V15.00,2015-04-27 06:32:00,
2015-04-27 01:37:00,39.3,32.0,30.10,NNW,329,5.0,9.0,75,0.00,,---,0.00,VWS V15.00,2015-04-27 06:37:00,
2015-04-27 01:42:00,39.5,31.9,30.11,NNW,338,4.0,8.0,74,0.00,,---,0.00,VWS V15.00,2015-04-27 06:42:00,
2015-04-27 01:47:00,39.5,31.9,30.10,North,355,7.0,8.0,74,0.00,,---,0.00,VWS V15.00,2015-04-27 06:47:00,
2015-04-27 01:52:00,39.7,32.1,30.10,North,10,6.0,8.0,74,0.00,,---,0.00,VWS V15.00,2015-04-27 06:52:00,
2015-04-27 01:57:00,39.7,31.8,30.10,North,5,2.0,7.0,73,0.00,,---,0.00,VWS V15.00,2015-04-27 06:57:00,
2015-04-27 02:02:00,39.4,31.8,30.10,North,360,2.0,5.0,74,0.00,,---,0.00,VWS V15.00,2015-04-27 07:02:00,
2015-04-27 02:07:00,39.2,31.6,30.10,North,355,5.0,5.0,74,0.00,,---,0.00,VWS V15.00,2015-04-27 07:07:00,
2015-04-27 02:12:00,39.1,31.5,30.10,North,355,5.0,6.0,74,0.00,,---,0.00,VWS V15.00,2015-04-27 07:12:00,
2015-04-27 02:17:00,39.3,31.7,30.10,North,351,5.0,7.0,74,0.00,,---,0.00,VWS V15.00,2015-04-27 07:17:00,
2015-04-27 02:22:00,39.4,31.5,30.10,NNW,348,5.0,8.0,73,0.00,,---,0.00,VWS V15.00,2015-04-27 07:22:00,
2015-04-27 02:27:00,39.4,31.5,30.10,North,350,3.0,6.0,73,0.00,,---,0.00,VWS V15.00,2015-04-27 07:27:00,
2015-04-27 02:32:00,39.5,31.6,30.10,North,355,3.0,8.0,73,0.00,,---,0.00,VWS V15.00,2015-04-27 07:32:00,
2015-04-27 02:37:00,39.5,31.2,30.10,North,5,4.0,7.0,72,0.00,,---,0.00,VWS V15.00,2015-04-27 07:37:00,
2015-04-27 02:42:00,39.3,31.4,30.10,North,5,6.0,6.0,73,0.00,,---,0.00,VWS V15.00,2015-04-27 07:42:00,
2015-04-27 02:47:00,39.1,31.2,30.10,NNW,342,3.0,7.0,73,0.00,,---,0.00,VWS V15.00,2015-04-27 07:47:00,
2015-04-27 02:52:00,39.1,31.2,30.10,NNW,344,4.0,9.0,73,0.00,,---,0.00,VWS V15.00,2015-04-27 07:52:00,
2015-04-27 02:57:00,39.3,31.0,30.10,North,355,4.0,8.0,72,0.00,,---,0.00,VWS V15.00,2015-04-27 07:57:00,
2015-04-27 03:02:00,39.6,31.3,30.10,North,355,5.0,7.0,72,0.00,,---,0.00,VWS V15.00,2015-04-27 08:02:00,
2015-04-27 03:07:00,39.6,31.0,30.10,North,350,5.0,7.0,71,0.00,,---,0.00,VWS V15.00,2015-04-27 08:07:00,
2015-04-27 03:12:00,39.7,31.1,30.10,North,355,4.0,8.0,71,0.00,,---,0.00,VWS V15.00,2015-04-27 08:12:00,
2015-04-27 03:17:00,39.7,31.1,30.11,NW,326,7.0,9.0,71,0.00,,---,0.00,VWS V15.00,2015-04-27 08:17:00,
2015-04-27 03:22:00,39.9,31.3,30.11,North,350,7.0,8.0,71,0.00,,---,0.00,VWS V15.00,2015-04-27 08:22:00,
2015-04-27 03:27:00,39.9,31.3,30.11,NNW,337,9.0,10.0,71,0.00,,---,0.00,VWS V15.00,2015-04-27 08:27:00,
2015-04-27 03:32:00,39.9,31.3,30.11,NNW,346,6.0,8.0,71,0.00,,---,0.00,VWS V15.00,2015-04-27 08:32:00,
2015-04-27 03:37:00,40.0,31.0,30.11,NNW,333,7.0,8.0,70,0.00,,---,0.00,VWS V15.00,2015-04-27 08:37:00,
2015-04-27 03:42:00,40.0,31.0,30.10,NNW,347,7.0,9.0,70,0.00,,---,0.00,VWS V15.00,2015-04-27 08:42:00,
2015-04-27 03:47:00,40.1,31.1,30.10,North,360,2.0,7.0,70,0.00,,---,0.00,VWS V15.00,2015-04-27 08:47:00,
2015-04-27 03:52:00,40.2,31.2,30.10,North,355,5.0,8.0,70,0.00,,---,0.00,VWS V15.00,2015-04-27 08:52:00,
2015-04-27 03:57:00,40.1,31.1,30.10,North,355,5.0,6.0,70,0.00,,---,0.00,VWS V15.00,2015-04-27 08:57:00,
2015-04-27 04:02:00,39.9,30.9,30.11,NNW,337,4.0,8.0,70,0.00,,---,0.00,VWS V15.00,2015-04-27 09:02:00,
2015-04-27 04:07:00,39.7,30.7,30.11,NNW,342,7.0,8.0,70,0.00,,---,0.00,VWS V15.00,2015-04-27 09:07:00,
2015-04-27 04:12:00,39.6,31.0,30.11,NNW,344,6.0,8.0,71,0.00,,---,0.00,VWS V15.00,2015-04-27 09:12:00,
2015-04-27 04:17:00,39.7,31.1,30.11,North,351,5.0,8.0,71,0.00,,---,0.00,VWS V15.00,2015-04-27 09:17:00,
2015-04-27 04:22:00,39.8,30.8,30.11,North,360,4.0,7.0,70,0.00,,---,0.00,VWS V15.00,2015-04-27 09:22:00,
2015-04-27 04:27:00,39.9,30.9,30.11,North,5,7.0,9.0,70,0.00,,---,0.00,VWS V15.00,2015-04-27 09:27:00,
2015-04-27 04:32:00,39.9,30.9,30.11,North,360,4.0,7.0,70,0.00,,---,0.00,VWS V15.00,2015-04-27 09:32:00,
2015-04-27 04:37:00,39.8,30.8,30.11,North,350,5.0,6.0,70,0.00,,---,0.00,VWS V15.00,2015-04-27 09:37:00,
2015-04-27 04:42:00,39.8,30.8,30.11,North,355,7.0,7.0,70,0.00,,---,0.00,VWS V15.00,2015-04-27 09:42:00,
2015-04-27 04:47:00,39.8,30.8,30.11,North,350,8.0,8.0,70,0.00,,---,0.00,VWS V15.00,2015-04-27 09:47:00,
2015-04-27 04:52:00,39.8,30.8,30.11,NNW,345,4.0,8.0,70,0.00,,---,0.00,VWS V15.00,2015-04-27 09:52:00,
2015-04-27 04:57:00,39.8,30.8,30.11,North,355,5.0,8.0,70,0.00,,---,0.00,VWS V15.00,2015-04-27 09:57:00,
2015-04-27 05:02:00,39.8,30.8,30.10,NNW,333,6.0,7.0,70,0.00,,---,0.00,VWS V15.00,2015-04-27 10:02:00,
2015-04-27 05:07:00,39.7,30.7,30.10,North,355,6.0,9.0,70,0.00,,---,0.00,VWS V15.00,2015-04-27 10:07:00,
2015-04-27 05:12:00,39.6,31.0,30.10,North,350,5.0,7.0,71,0.00,,---,0.00,VWS V15.00,2015-04-27 10:12:00,
2015-04-27 05:17:00,39.5,30.9,30.11,NNW,346,5.0,7.0,71,0.00,,---,0.00,VWS V15.00,2015-04-27 10:17:00,
2015-04-27 05:22:00,39.3,31.0,30.11,North,351,5.0,9.0,72,0.00,,---,0.00,VWS V15.00,2015-04-27 10:22:00,
2015-04-27 05:27:00,39.1,30.9,30.11,NNW,346,6.0,7.0,72,0.00,,---,0.00,VWS V15.00,2015-04-27 10:27:00,
2015-04-27 05:32:00,39.0,30.8,30.11,NNW,344,5.0,7.0,72,0.00,,---,0.00,VWS V15.00,2015-04-27 10:32:00,
2015-04-27 05:37:00,38.8,30.9,30.11,NNW,329,7.0,8.0,73,0.00,,---,0.00,VWS V15.00,2015-04-27 10:37:00,
2015-04-27 05:42:00,38.7,30.8,30.11,NNW,345,6.0,9.0,73,0.00,,---,0.00,VWS V15.00,2015-04-27 10:42:00,
2015-04-27 05:47:00,38.6,31.0,30.11,North,350,5.0,8.0,74,0.00,,---,0.00,VWS V15.00,2015-04-27 10:47:00,
2015-04-27 05:52:00,38.6,31.0,30.11,NNW,344,6.0,8.0,74,0.00,,---,0.00,VWS V15.00,2015-04-27 10:52:00,
2015-04-27 05:57:00,38.6,31.0,30.11,NNW,338,8.0,8.0,74,0.00,,---,0.00,VWS V15.00,2015-04-27 10:57:00,
2015-04-27 06:02:00,38.7,31.1,30.11,NNW,347,6.0,8.0,74,0.00,,---,0.00,VWS V15.00,2015-04-27 11:02:00,
2015-04-27 06:07:00,39.0,31.4,30.11,NNW,346,7.0,8.0,74,0.00,,---,0.00,VWS V15.00,2015-04-27 11:07:00,
2015-04-27 06:12:00,39.5,31.6,30.11,North,355,4.0,8.0,73,0.00,,---,0.00,VWS V15.00,2015-04-27 11:12:00,
2015-04-27 06:17:00,40.0,31.7,30.11,North,355,4.0,8.0,72,0.00,,---,0.00,VWS V15.00,2015-04-27 11:17:00,
2015-04-27 06:22:00,40.5,31.9,30.11,North,360,4.0,8.0,71,0.00,,---,0.00,VWS V15.00,2015-04-27 11:22:00,
2015-04-27 06:27:00,40.8,31.8,30.11,North,355,4.0,6.0,70,0.00,,---,0.00,VWS V15.00,2015-04-27 11:27:00,
2015-04-27 06:32:00,41.2,31.8,30.11,North,360,5.0,6.0,69,0.00,,---,0.00,VWS V15.00,2015-04-27 11:32:00,
2015-04-27 06:37:00,41.6,32.2,30.11,NNW,333,8.0,8.0,69,0.00,,---,0.00,VWS V15.00,2015-04-27 11:37:00,
2015-04-27 06:42:00,41.8,32.0,30.11,North,5,7.0,10.0,68,0.00,,---,0.00,VWS V15.00,2015-04-27 11:42:00,
2015-04-27 06:47:00,41.8,32.0,30.11,North,360,4.0,7.0,68,0.00,,---,0.00,VWS V15.00,2015-04-27 11:47:00,
2015-04-27 06:52:00,41.8,32.4,30.11,NNE,19,4.0,8.0,69,0.00,,---,0.00,VWS V15.00,2015-04-27 11:52:00,
2015-04-27 06:57:00,41.7,32.7,30.11,NNE,23,8.0,8.0,70,0.00,,---,0.00,VWS V15.00,2015-04-27 11:57:00,
2015-04-27 07:02:00,41.7,32.7,30.11,NNE,13,7.0,10.0,70,0.00,,---,0.00,VWS V15.00,2015-04-27 12:02:00,
2015-04-27 07:07:00,41.9,32.8,30.11,NNE,15,7.0,8.0,70,0.00,,---,0.00,VWS V15.00,2015-04-27 12:07:00,
2015-04-27 07:12:00,42.4,33.0,30.12,NNE,12,6.0,8.0,69,0.00,,---,0.00,VWS V15.00,2015-04-27 12:12:00,
2015-04-27 07:17:00,42.8,33.0,30.12,NNW,346,10.0,10.0,68,0.00,,---,0.00,VWS V15.00,2015-04-27 12:17:00,
2015-04-27 07:22:00,43.0,32.8,30.12,North,5,11.0,12.0,67,0.00,,---,0.00,VWS V15.00,2015-04-27 12:22:00,
2015-04-27 07:27:00,43.2,33.4,30.12,North,9,8.0,11.0,68,0.00,,---,0.00,VWS V15.00,2015-04-27 12:27:00,
2015-04-27 07:32:00,43.4,33.2,30.12,NNE,13,6.0,11.0,67,0.00,,---,0.00,VWS V15.00,2015-04-27 12:32:00,
2015-04-27 07:36:00,43.6,33.0,30.12,NNE,22,9.0,12.0,66,0.00,,---,0.00,VWS V15.00,2015-04-27 12:36:00,
2015-04-27 07:41:00,43.8,33.2,30.12,NNE,28,8.0,11.0,66,0.00,,---,0.00,VWS V15.00,2015-04-27 12:41:00,
2015-04-27 07:46:00,44.2,34.0,30.12,NNE,28,6.0,10.0,67,0.00,,---,0.00,VWS V15.00,2015-04-27 12:46:00,
2015-04-27 07:51:00,44.6,34.0,30.13,North,9,7.0,9.0,66,0.00,,---,0.00,VWS V15.00,2015-04-27 12:51:00,
2015-04-27 07:56:00,45.0,34.3,30.13,North,355,8.0,9.0,66,0.00,,---,0.00,VWS V15.00,2015-04-27 12:56:00,
2015-04-27 08:01:00,45.3,34.2,30.12,NNE,32,7.0,10.0,65,0.00,,---,0.00,VWS V15.00,2015-04-27 13:01:00,
2015-04-27 08:06:00,45.6,34.9,30.12,NNE,19,10.0,11.0,66,0.00,,---,0.00,VWS V15.00,2015-04-27 13:06:00,
2015-04-27 08:11:00,45.6,34.5,30.13,NNE,29,10.0,11.0,65,0.00,,---,0.00,VWS V15.00,2015-04-27 13:11:00,
2015-04-27 08:16:00,45.8,35.1,30.13,North,5,10.0,11.0,66,0.00,,---,0.00,VWS V15.00,2015-04-27 13:16:00,
2015-04-27 08:21:00,46.5,35.4,30.13,NNW,348,5.0,9.0,65,0.00,,---,0.00,VWS V15.00,2015-04-27 13:21:00,
2015-04-27 08:26:00,47.0,35.5,30.13,NNE,17,8.0,11.0,64,0.00,,---,0.00,VWS V15.00,2015-04-27 13:26:00,
2015-04-27 08:31:00,47.4,35.8,30.13,North,355,8.0,12.0,64,0.00,,---,0.00,VWS V15.00,2015-04-27 13:31:00,
2015-04-27 08:36:00,47.5,35.9,30.13,NNE,27,7.0,13.0,64,0.00,,---,0.00,VWS V15.00,2015-04-27 13:36:00,
2015-04-27 08:41:00,47.6,35.6,30.13,NNE,12,5.0,11.0,63,0.00,,---,0.00,VWS V15.00,2015-04-27 13:41:00,
2015-04-27 08:46:00,48.2,36.2,30.13,NNE,22,7.0,13.0,63,0.00,,---,0.00,VWS V15.00,2015-04-27 13:46:00,
2015-04-27 08:51:00,48.1,35.7,30.13,NNW,334,5.0,10.0,62,0.00,,---,0.00,VWS V15.00,2015-04-27 13:51:00,
2015-04-27 08:56:00,49.0,37.0,30.13,NNW,344,9.0,10.0,63,0.00,,---,0.00,VWS V15.00,2015-04-27 13:56:00,
2015-04-27 09:01:00,49.2,35.9,30.13,North,10,8.0,12.0,60,0.00,,---,0.00,VWS V15.00,2015-04-27 14:01:00,
2015-04-27 09:06:00,49.3,36.4,30.13,NNW,348,7.0,11.0,61,0.00,,---,0.00,VWS V15.00,2015-04-27 14:06:00,
2015-04-27 09:11:00,49.8,36.9,30.14,North,5,7.0,12.0,61,0.00,,---,0.00,VWS V15.00,2015-04-27 14:11:00,
2015-04-27 09:16:00,50.0,35.8,30.14,North,355,8.0,15.0,58,0.00,,---,0.00,VWS V15.00,2015-04-27 14:16:00,
2015-04-27 09:21:00,50.1,36.3,30.14,NNW,329,6.0,12.0,59,0.00,,---,0.00,VWS V15.00,2015-04-27 14:21:00,
2015-04-27 09:26:00,50.4,37.0,30.14,NNE,18,8.0,9.0,60,0.00,,---,0.00,VWS V15.00,2015-04-27 14:26:00,
2015-04-27 09:31:00,51.0,37.2,30.14,NNE,15,9.0,10.0,59,0.00,,---,0.00,VWS V15.00,2015-04-27 14:31:00,
2015-04-27 09:36:00,51.3,36.6,30.14,North,351,7.0,11.0,57,0.00,,---,0.00,VWS V15.00,2015-04-27 14:36:00,
2015-04-27 09:41:00,52.3,38.0,30.14,North,5,9.0,13.0,58,0.00,,---,0.00,VWS V15.00,2015-04-27 14:41:00,
2015-04-27 09:46:00,52.4,36.3,30.14,NW,313,6.0,12.0,54,0.00,,---,0.00,VWS V15.00,2015-04-27 14:46:00,
2015-04-27 09:51:00,53.0,37.7,30.14,NW,319,10.0,10.0,56,0.00,,---,0.00,VWS V15.00,2015-04-27 14:51:00,
2015-04-27 09:56:00,53.0,36.8,30.14,North,5,11.0,12.0,54,0.00,,---,0.00,VWS V15.00,2015-04-27 14:56:00,
2015-04-27 10:01:00,51.9,36.3,30.14,NNE,16,7.0,14.0,55,0.00,,---,0.00,VWS V15.00,2015-04-27 15:01:00,
2015-04-27 10:06:00,51.8,37.1,30.14,NW,311,8.0,11.0,57,0.00,,---,0.00,VWS V15.00,2015-04-27 15:06:00,
2015-04-27 10:11:00,52.4,37.2,30.14,NNW,333,8.0,13.0,56,0.00,,---,0.00,VWS V15.00,2015-04-27 15:11:00,
2015-04-27 10:16:00,53.5,37.3,30.14,NW,312,9.0,15.0,54,0.00,,---,0.00,VWS V15.00,2015-04-27 15:16:00,
2015-04-27 10:21:00,54.0,38.2,30.14,NNW,328,10.0,16.0,55,0.00,,---,0.00,VWS V15.00,2015-04-27 15:21:00,
2015-04-27 10:26:00,53.5,36.8,30.14,NNE,22,11.0,15.0,53,0.00,,---,0.00,VWS V15.00,2015-04-27 15:26:00,
2015-04-27 10:31:00,53.1,37.4,30.14,North,355,8.0,19.0,55,0.00,,---,0.00,VWS V15.00,2015-04-27 15:31:00,
2015-04-27 10:36:00,53.3,36.6,30.15,NNW,346,6.0,16.0,53,0.00,,---,0.00,VWS V15.00,2015-04-27 15:36:00,
2015-04-27 10:41:00,53.6,37.4,30.15,NNW,338,13.0,13.0,54,0.00,,---,0.00,VWS V15.00,2015-04-27 15:41:00,
2015-04-27 10:46:00,53.5,36.3,30.15,North,5,7.0,15.0,52,0.00,,---,0.00,VWS V15.00,2015-04-27 15:46:00,
2015-04-27 10:51:00,54.0,37.3,30.15,North,10,9.0,13.0,53,0.00,,---,0.00,VWS V15.00,2015-04-27 15:51:00,
2015-04-27 10:56:00,55.0,37.7,30.15,WNW,290,7.0,17.0,52,0.00,,---,0.00,VWS V15.00,2015-04-27 15:56:00,
2015-04-27 11:01:00,55.3,37.5,30.15,North,350,10.0,21.0,51,0.00,,---,0.00,VWS V15.00,2015-04-27 16:01:00,
2015-04-27 11:06:00,53.7,37.0,30.15,NNE,17,12.0,15.0,53,0.00,,---,0.00,VWS V15.00,2015-04-27 16:06:00,
2015-04-27 11:11:00,54.1,38.3,30.15,NNW,335,4.0,13.0,55,0.00,,---,0.00,VWS V15.00,2015-04-27 16:11:00,
2015-04-27 11:16:00,54.3,36.6,30.15,NNW,340,16.0,18.0,51,0.00,,---,0.00,VWS V15.00,2015-04-27 16:16:00,
2015-04-27 11:21:00,53.9,38.1,30.15,WNW,287,3.0,13.0,55,0.00,,---,0.00,VWS V15.00,2015-04-27 16:21:00,
2015-04-27 11:26:00,55.1,38.3,30.15,NNW,328,7.0,10.0,53,0.00,,---,0.00,VWS V15.00,2015-04-27 16:26:00,
2015-04-27 11:31:00,55.6,38.8,30.15,NNW,331,11.0,16.0,53,0.00,,---,0.00,VWS V15.00,2015-04-27 16:31:00,
2015-04-27 11:36:00,55.6,38.3,30.15,North,360,9.0,14.0,52,0.00,,---,0.00,VWS V15.00,2015-04-27 16:36:00,
2015-04-27 11:41:00,54.1,37.8,30.15,North,360,7.0,14.0,54,0.00,,---,0.00,VWS V15.00,2015-04-27 16:41:00,
2015-04-27 11:46:00,54.7,37.9,30.15,NNE,12,6.0,12.0,53,0.00,,---,0.00,VWS V15.00,2015-04-27 16:46:00,
2015-04-27 11:51:00,54.6,37.8,30.15,NNW,338,9.0,17.0,53,0.00,,---,0.00,VWS V15.00,2015-04-27 16:51:00,
2015-04-27 11:56:00,55.3,37.5,30.15,North,349,12.0,15.0,51,0.00,,---,0.00,VWS V15.00,2015-04-27 16:56:00,
2015-04-27 12:01:00,53.8,36.6,30.15,NNE,19,7.0,17.0,52,0.00,,---,0.00,VWS V15.00,2015-04-27 17:01:00,
2015-04-27 12:06:00,53.2,36.0,30.14,NNW,339,9.0,17.0,52,0.00,,---,0.00,VWS V15.00,2015-04-27 17:06:00,
2015-04-27 12:11:00,53.6,37.4,30.14,North,11,8.0,15.0,54,0.00,,---,0.00,VWS V15.00,2015-04-27 17:11:00,
2015-04-27 12:16:00,54.3,38.5,30.14,NNE,27,7.0,11.0,55,0.00,,---,0.00,VWS V15.00,2015-04-27 17:16:00,
2015-04-27 12:21:00,55.3,38.0,30.14,North,11,8.0,16.0,52,0.00,,---,0.00,VWS V15.00,2015-04-27 17:21:00,
2015-04-27 12:26:00,54.7,37.4,30.14,North,10,10.0,15.0,52,0.00,,---,0.00,VWS V15.00,2015-04-27 17:26:00,
2015-04-27 12:31:00,53.8,36.6,30.14,North,349,12.0,14.0,52,0.00,,---,0.00,VWS V15.00,2015-04-27 17:31:00,
2015-04-27 12:36:00,53.9,37.2,30.14,North,350,7.0,16.0,53,0.00,,---,0.00,VWS V15.00,2015-04-27 17:36:00,
2015-04-27 12:41:00,54.0,38.2,30.14,North,355,15.0,21.0,55,0.00,,---,0.00,VWS V15.00,2015-04-27 17:41:00,
2015-04-27 12:46:00,54.5,37.7,30.14,NW,322,10.0,15.0,53,0.00,,---,0.00,VWS V15.00,2015-04-27 17:46:00,